Time,TemperatureF,DewpointF,PressureIn,WindDirection,WindDirectionDegrees,WindSpeedMPH,WindSpeedGustMPH,Humidity,HourlyPrecipIn,Conditions,Clouds,dailyrainin,SoftwareType,DateUTC
2013-05-16 00:03:00,79.0,-99.9,30.08,WSW,250,0.0,0.0,-999,0.00,,,0.00,,2013-05-16 04:03:00,
2013-05-16 00:12:00,79.0,-99.9,30.08,WSW,250,0.0,0.0,-999,0.00,,,0.00,,2013-05-16 04:12:00,
2013-05-16 00:23:00,77.0,-99.9,30.09,WSW,250,0.0,0.0,-999,0.00,,,0.00,,2013-05-16 04:23:00,
2013-05-16 00:33:00,77.0,-99.9,30.10,WNW,285,0.0,0.0,-999,0.00,,,0.00,,2013-05-16 04:33:00,
2013-05-16 00:43:00,77.0,-99.9,30.10,WNW,285,0.0,0.0,-999,0.00,,,0.00,,2013-05-16 04:43:00,
2013-05-16 00:53:00,77.0,-99.9,30.10,WNW,302,0.0,0.0,-999,0.00,,,0.00,,2013-05-16 04:53:00,
2013-05-16 01:03:00,77.0,-99.9,30.10,WNW,291,0.0,0.0,-999,0.00,,,0.00,,2013-05-16 05:03:00,
2013-05-16 01:12:00,77.0,-99.9,30.10,WNW,291,0.0,0.0,-999,0.00,,,0.00,,2013-05-16 05:12:00,
2013-05-16 01:22:00,76.0,-99.9,30.11,WNW,291,0.0,0.0,-999,0.00,,,0.00,,2013-05-16 05:22:00,
2013-05-16 01:32:00,75.0,-99.9,30.11,WNW,291,0.0,0.0,-999,0.00,,,0.00,,2013-05-16 05:32:00,
2013-05-16 01:42:00,75.0,-99.9,30.11,WNW,291,0.0,0.0,-999,0.00,,,0.00,,2013-05-16 05:42:00,
2013-05-16 01:52:00,75.0,-99.9,30.11,WNW,291,0.0,0.0,-999,0.00,,,0.00,,2013-05-16 05:52:00,
2013-05-16 02:02:00,74.0,-99.9,30.11,WNW,291,0.0,0.0,-999,0.00,,,0.00,,2013-05-16 06:02:00,
2013-05-16 02:12:00,74.0,-99.9,30.11,WNW,291,0.0,0.0,-999,0.00,,,0.00,,2013-05-16 06:12:00,
2013-05-16 02:23:00,74.0,-99.9,30.11,WNW,291,0.0,0.0,-999,0.00,,,0.00,,2013-05-16 06:23:00,
2013-05-16 02:33:00,73.0,-99.9,30.11,WSW,244,0.0,3.0,-999,0.00,,,0.00,,2013-05-16 06:33:00,
2013-05-16 02:43:00,73.0,-99.9,30.11,WSW,244,0.0,3.0,-999,0.00,,,0.00,,2013-05-16 06:43:00,
2013-05-16 02:53:00,72.0,-99.9,30.11,WSW,244,0.0,0.0,-999,0.00,,,0.00,,2013-05-16 06:53:00,
2013-05-16 03:02:00,72.0,-99.9,30.11,WSW,244,0.0,0.0,-999,0.00,,,0.00,,2013-05-16 07:02:00,
2013-05-16 03:12:00,72.0,-99.9,30.11,WSW,244,0.0,0.0,-999,0.00,,,0.00,,2013-05-16 07:12:00,
2013-05-16 03:24:00,72.0,-99.9,30.11,SSW,205,0.0,3.0,-999,0.00,,,0.00,,2013-05-16 07:24:00,
2013-05-16 03:34:00,72.0,-99.9,30.11,SSW,205,0.0,0.0,-999,0.00,,,0.00,,2013-05-16 07:34:00,
2013-05-16 03:44:00,72.0,-99.9,30.11,SSW,205,0.0,0.0,-999,0.00,,,0.00,,2013-05-16 07:44:00,
2013-05-16 03:54:00,72.0,-99.9,30.11,SSW,205,0.0,0.0,-999,0.00,,,0.00,,2013-05-16 07:54:00,
2013-05-16 04:03:00,72.0,-99.9,30.11,SSW,205,0.0,0.0,-999,0.00,,,0.00,,2013-05-16 08:03:00,
2013-05-16 04:13:00,71.0,-99.9,30.10,SSW,205,0.0,0.0,-999,0.00,,,0.00,,2013-05-16 08:13:00,
2013-05-16 04:24:00,71.0,-99.9,30.10,SSW,205,0.0,0.0,-999,0.00,,,0.00,,2013-05-16 08:24:00,
2013-05-16 04:35:00,71.0,-99.9,30.11,SSW,205,0.0,0.0,-999,0.00,,,0.00,,2013-05-16 08:35:00,
2013-05-16 04:45:00,69.0,-99.9,30.10,SSW,205,0.0,0.0,-999,0.00,,,0.00,,2013-05-16 08:45:00,
2013-05-16 04:55:00,69.0,-99.9,30.10,SSW,205,0.0,0.0,-999,0.00,,,0.00,,2013-05-16 08:55:00,
2013-05-16 05:04:00,69.0,-99.9,30.10,SSW,205,0.0,0.0,-999,0.00,,,0.00,,2013-05-16 09:04:00,
2013-05-16 05:14:00,67.0,-99.9,30.11,SSW,205,0.0,0.0,-999,0.00,,,0.00,,2013-05-16 09:14:00,
2013-05-16 05:24:00,67.0,-99.9,30.11,SSW,205,0.0,0.0,-999,0.00,,,0.00,,2013-05-16 09:24:00,
2013-05-16 05:35:00,65.0,-99.9,30.10,SSW,205,0.0,0.0,-999,0.00,,,0.00,,2013-05-16 09:35:00,
2013-05-16 05:45:00,65.0,-99.9,30.11,SSW,205,0.0,0.0,-999,0.00,,,0.00,,2013-05-16 09:45:00,
2013-05-16 05:55:00,65.0,-99.9,30.11,SSW,205,0.0,0.0,-999,0.00,,,0.00,,2013-05-16 09:55:00,
2013-05-16 06:05:00,65.0,-99.9,30.11,SSW,205,0.0,0.0,-999,0.00,,,0.00,,2013-05-16 10:05:00,
2013-05-16 06:15:00,65.0,-99.9,30.11,SSW,205,0.0,0.0,-999,0.00,,,0.00,,2013-05-16 10:15:00,
2013-05-16 06:24:00,65.0,-99.9,30.11,SSW,205,0.0,0.0,-999,0.00,,,0.00,,2013-05-16 10:24:00,
2013-05-16 06:36:00,65.0,-99.9,30.11,SSW,205,0.0,0.0,-999,0.00,,,0.00,,2013-05-16 10:36:00,
2013-05-16 06:45:00,65.0,-99.9,30.11,SSW,205,0.0,0.0,-999,0.00,,,0.00,,2013-05-16 10:45:00,
2013-05-16 06:57:00,64.0,-99.9,30.11,SSW,205,0.0,0.0,-999,0.00,,,0.00,,2013-05-16 10:57:00,
2013-05-16 07:05:00,63.0,-99.9,30.11,SSW,205,0.0,0.0,-999,0.00,,,0.00,,2013-05-16 11:05:00,
2013-05-16 07:15:00,63.0,-99.9,30.11,SSW,205,0.0,0.0,-999,0.00,,,0.00,,2013-05-16 11:15:00,
2013-05-16 07:25:00,63.0,-99.9,30.11,SSW,205,0.0,0.0,-999,0.00,,,0.00,,2013-05-16 11:25:00,
2013-05-16 07:35:00,63.0,-99.9,30.11,SSW,205,0.0,0.0,-999,0.00,,,0.00,,2013-05-16 11:35:00,
2013-05-16 07:46:00,63.0,-99.9,30.11,SSW,205,0.0,0.0,-999,0.00,,,0.00,,2013-05-16 11:46:00,
2013-05-16 07:57:00,62.0,-99.9,30.11,SSW,205,0.0,0.0,-999,0.00,,,0.00,,2013-05-16 11:57:00,
2013-05-16 08:06:00,63.0,-99.9,30.11,SSW,205,0.0,0.0,-999,0.00,,,0.00,,2013-05-16 12:06:00,
2013-05-16 08:13:00,63.0,-99.9,30.11,SSW,205,0.0,0.0,-999,0.00,,,0.00,,2013-05-16 12:13:00,
2013-05-16 08:23:00,61.0,-99.9,30.11,SSW,195,0.0,0.0,-999,0.00,,,0.00,,2013-05-16 12:23:00,
2013-05-16 08:35:00,62.0,-99.9,30.11,SSW,195,0.0,0.0,-999,0.00,,,0.00,,2013-05-16 12:35:00,
2013-05-16 08:45:00,62.0,-99.9,30.11,SSW,195,0.0,0.0,-999,0.00,,,0.00,,2013-05-16 12:45:00,
2013-05-16 08:53:00,62.0,-99.9,30.12,SSW,195,0.0,0.0,-999,0.00,,,0.00,,2013-05-16 12:53:00,
2013-05-16 09:04:00,63.0,-99.9,30.13,WSW,247,0.0,0.0,-999,0.00,,,0.00,,2013-05-16 13:04:00,
2013-05-16 09:12:00,63.0,-99.9,30.13,WSW,247,0.0,0.0,-999,0.00,,,0.00,,2013-05-16 13:12:00,
2013-05-16 09:27:00,63.0,-99.9,30.13,WSW,247,0.0,0.0,-999,0.00,,,0.00,,2013-05-16 13:27:00,
2013-05-16 09:35:00,63.0,-99.9,30.13,WSW,247,0.0,0.0,-999,0.00,,,0.00,,2013-05-16 13:35:00,
2013-05-16 09:44:00,63.0,-99.9,30.13,WSW,247,0.0,0.0,-999,0.00,,,0.00,,2013-05-16 13:44:00,
2013-05-16 09:55:00,65.0,-99.9,30.14,WSW,247,0.0,0.0,-999,0.00,,,0.00,,2013-05-16 13:55:00,
2013-05-16 10:05:00,66.0,-99.9,30.14,WSW,247,0.0,0.0,-999,0.00,,,0.00,,2013-05-16 14:05:00,
2013-05-16 10:16:00,66.0,-99.9,30.14,WSW,247,0.0,0.0,-999,0.00,,,0.00,,2013-05-16 14:16:00,
2013-05-16 10:23:00,67.0,-99.9,30.14,SSW,202,3.0,3.0,-999,0.00,,,0.00,,2013-05-16 14:23:00,
2013-05-16 10:37:00,67.0,-99.9,30.14,SSW,203,0.0,0.0,-999,0.00,,,0.00,,2013-05-16 14:37:00,
2013-05-16 10:47:00,67.0,-99.9,30.14,SSW,203,0.0,0.0,-999,0.00,,,0.00,,2013-05-16 14:47:00,
2013-05-16 10:56:00,69.0,-99.9,30.14,SSE,147,3.0,0.0,-999,0.00,,,0.00,,2013-05-16 14:56:00,
2013-05-16 11:08:00,70.0,-99.9,30.14,SSE,158,0.0,0.0,-999,0.00,,,0.00,,2013-05-16 15:08:00,
2013-05-16 11:17:00,71.0,-99.9,30.14,SW,223,2.0,0.0,-999,0.00,,,0.00,,2013-05-16 15:17:00,
2013-05-16 11:28:00,71.0,-99.9,30.14,SW,223,2.0,0.0,-999,0.00,,,0.00,,2013-05-16 15:28:00,
2013-05-16 11:41:00,73.0,-99.9,30.14,SSW,201,0.0,0.0,-999,0.00,,,0.00,,2013-05-16 15:41:00,
2013-05-16 11:50:00,75.0,-99.9,30.14,SSE,147,0.0,0.0,-999,0.00,,,0.00,,2013-05-16 15:50:00,
2013-05-16 12:01:00,75.0,-99.9,30.14,SSE,147,0.0,0.0,-999,0.00,,,0.00,,2013-05-16 16:01:00,
2013-05-16 12:09:00,76.0,-99.9,30.14,South,182,0.0,2.0,-999,0.00,,,0.00,,2013-05-16 16:09:00,
2013-05-16 12:20:00,76.0,-99.9,30.14,South,182,0.0,2.0,-999,0.00,,,0.00,,2013-05-16 16:20:00,
2013-05-16 12:30:00,78.0,-99.9,30.14,SSE,151,2.0,2.0,-999,0.00,,,0.00,,2013-05-16 16:30:00,
2013-05-16 12:40:00,80.0,-99.9,30.14,SE,136,0.0,0.0,-999,0.00,,,0.00,,2013-05-16 16:40:00,
2013-05-16 12:51:00,80.0,-99.9,30.14,SE,136,0.0,0.0,-999,0.00,,,0.00,,2013-05-16 16:51:00,
2013-05-16 13:01:00,81.0,-99.9,30.13,ESE,106,0.0,6.0,-999,0.00,,,0.00,,2013-05-16 17:01:00,
2013-05-16 13:11:00,82.0,-99.9,30.13,NNE,21,0.0,0.0,-999,0.00,,,0.00,,2013-05-16 17:11:00,
2013-05-16 13:20:00,82.0,-99.9,30.13,NNE,21,0.0,0.0,-999,0.00,,,0.00,,2013-05-16 17:20:00,
2013-05-16 13:31:00,81.0,-99.9,30.12,ESE,116,0.0,0.0,-999,0.00,,,0.00,,2013-05-16 17:31:00,
2013-05-16 13:40:00,83.0,-99.9,30.11,SE,130,0.0,0.0,-999,0.00,,,0.00,,2013-05-16 17:40:00,
2013-05-16 13:50:00,84.0,-99.9,30.11,NNW,347,0.0,7.0,-999,0.00,,,0.00,,2013-05-16 17:50:00,
2013-05-16 14:00:00,84.0,-99.9,30.11,NNW,347,0.0,7.0,-999,0.00,,,0.00,,2013-05-16 18:00:00,
2013-05-16 14:10:00,85.0,-99.9,30.11,NNW,347,0.0,0.0,-999,0.00,,,0.00,,2013-05-16 18:10:00,
2013-05-16 14:20:00,85.0,-99.9,30.11,NNW,347,0.0,0.0,-999,0.00,,,0.00,,2013-05-16 18:20:00,
2013-05-16 14:30:00,-999.0,-99.9,30.11,NNE,12,2.0,0.0,-999,0.00,,,0.00,,2013-05-16 18:30:00,
2013-05-16 14:41:00,-999.0,-99.9,30.10,North,358,0.0,0.0,-999,0.00,,,0.00,,2013-05-16 18:41:00,
2013-05-16 14:50:00,-999.0,-99.9,30.10,North,358,0.0,0.0,-999,0.00,,,0.00,,2013-05-16 18:50:00,
2013-05-16 15:01:00,-999.0,-99.9,30.08,SW,234,0.0,5.0,-999,0.00,,,0.00,,2013-05-16 19:01:00,
2013-05-16 15:11:00,88.0,-99.9,30.08,SW,233,3.0,0.0,-999,0.00,,,0.00,,2013-05-16 19:11:00,
2013-05-16 15:20:00,88.0,-99.9,30.08,SW,233,3.0,0.0,-999,0.00,,,0.00,,2013-05-16 19:20:00,
2013-05-16 15:30:00,88.0,-99.9,30.07,WSW,251,0.0,0.0,-999,0.00,,,0.00,,2013-05-16 19:30:00,
2013-05-16 15:40:00,88.0,-99.9,30.07,West,277,1.0,6.0,-999,0.00,,,0.00,,2013-05-16 19:40:00,
2013-05-16 15:51:00,88.0,-99.9,30.07,West,277,1.0,6.0,-999,0.00,,,0.00,,2013-05-16 19:51:00,
2013-05-16 16:01:00,90.0,-99.9,30.06,WSW,246,0.0,0.0,-999,0.00,,,0.00,,2013-05-16 20:01:00,
2013-05-16 16:10:00,-999.0,-99.9,30.05,North,358,1.0,0.0,-999,0.00,,,0.00,,2013-05-16 20:10:00,
2013-05-16 16:20:00,90.0,-99.9,30.05,NNW,343,2.0,0.0,-999,0.00,,,0.00,,2013-05-16 20:20:00,
2013-05-16 16:30:00,90.0,-99.9,30.05,NNW,343,2.0,0.0,-999,0.00,,,0.00,,2013-05-16 20:30:00,
2013-05-16 16:41:00,-999.0,-99.9,30.05,West,270,2.0,7.0,-999,0.00,,,0.00,,2013-05-16 20:41:00,
2013-05-16 16:51:00,89.0,-99.9,30.04,North,358,0.0,0.0,-999,0.00,,,0.00,,2013-05-16 20:51:00,
2013-05-16 17:00:00,89.0,-99.9,30.04,North,358,0.0,0.0,-999,0.00,,,0.00,,2013-05-16 21:00:00,
2013-05-16 17:10:00,90.0,-99.9,30.03,NE,53,0.0,0.0,-999,0.00,,,0.00,,2013-05-16 21:10:00,
2013-05-16 17:20:00,90.0,-99.9,30.03,NE,53,0.0,0.0,-999,0.00,,,0.00,,2013-05-16 21:20:00,
2013-05-16 17:29:00,92.0,-99.9,30.02,SW,236,0.0,8.0,-999,0.00,,,0.00,,2013-05-16 21:29:00,
2013-05-16 17:39:00,91.0,-99.9,30.02,WSW,244,7.0,7.0,-999,0.00,,,0.00,,2013-05-16 21:39:00,
2013-05-16 17:50:00,91.0,-99.9,30.02,WSW,244,7.0,7.0,-999,0.00,,,0.00,,2013-05-16 21:50:00,
2013-05-16 18:01:00,-999.0,-99.9,30.01,WSW,244,4.0,7.0,-999,0.00,,,0.00,,2013-05-16 22:01:00,
2013-05-16 18:08:00,92.0,-99.9,30.00,NNW,331,0.0,0.0,-999,0.00,,,0.00,,2013-05-16 22:08:00,
2013-05-16 18:21:00,92.0,-99.9,30.00,NNW,331,0.0,0.0,-999,0.00,,,0.00,,2013-05-16 22:21:00,
2013-05-16 18:31:00,92.0,-99.9,30.00,WSW,244,6.0,10.0,-999,0.00,,,0.00,,2013-05-16 22:31:00,
2013-05-16 18:40:00,92.0,-99.9,29.99,WSW,244,0.0,0.0,-999,0.00,,,0.00,,2013-05-16 22:40:00,
2013-05-16 18:51:00,92.0,-99.9,29.99,WSW,244,0.0,0.0,-999,0.00,,,0.00,,2013-05-16 22:51:00,
2013-05-16 19:01:00,93.0,-99.9,29.98,North,355,0.0,0.0,-999,0.00,,,0.00,,2013-05-16 23:01:00,
2013-05-16 19:07:00,92.0,-99.9,29.98,WSW,240,8.0,14.0,-999,0.00,,,0.00,,2013-05-16 23:07:00,
2013-05-16 19:16:00,94.0,-99.9,29.98,WNW,302,0.0,1.0,-999,0.00,,,0.00,,2013-05-16 23:16:00,
2013-05-16 19:24:00,94.0,-99.9,29.98,WNW,302,0.0,1.0,-999,0.00,,,0.00,,2013-05-16 23:24:00,
2013-05-16 19:35:00,92.0,-99.9,29.98,West,265,0.0,3.0,-999,0.00,,,0.00,,2013-05-16 23:35:00,
2013-05-16 19:45:00,92.0,-99.9,29.98,West,265,0.0,3.0,-999,0.00,,,0.00,,2013-05-16 23:45:00,
2013-05-16 19:54:00,92.0,-99.9,29.98,SW,230,2.0,5.0,-999,0.00,,,0.00,,2013-05-16 23:54:00,
2013-05-16 20:03:00,89.0,-99.9,29.98,WSW,237,0.0,6.0,-999,0.00,,,0.00,,2013-05-17 00:03:00,
2013-05-16 20:13:00,89.0,-99.9,29.98,WSW,237,0.0,6.0,-999,0.00,,,0.00,,2013-05-17 00:13:00,
2013-05-16 20:22:00,92.0,-99.9,29.97,WSW,239,1.0,4.0,-999,0.00,,,0.00,,2013-05-17 00:22:00,
2013-05-16 20:33:00,92.0,-99.9,29.96,West,277,0.0,0.0,-999,0.00,,,0.00,,2013-05-17 00:33:00,
2013-05-16 20:44:00,92.0,-99.9,29.96,West,277,0.0,0.0,-999,0.00,,,0.00,,2013-05-17 00:44:00,
2013-05-16 20:53:00,91.0,-99.9,29.96,West,267,3.0,6.0,-999,0.00,,,0.00,,2013-05-17 00:53:00,
2013-05-16 21:03:00,90.0,-99.9,29.96,WSW,246,1.0,6.0,-999,0.00,,,0.00,,2013-05-17 01:03:00,
2013-05-16 21:12:00,90.0,-99.9,29.96,WSW,246,1.0,6.0,-999,0.00,,,0.00,,2013-05-17 01:12:00,
2013-05-16 21:23:00,90.0,-99.9,29.96,West,262,1.0,7.0,-999,0.00,,,0.00,,2013-05-17 01:23:00,
2013-05-16 21:32:00,89.0,-99.9,29.96,SSW,209,0.0,0.0,-999,0.00,,,0.00,,2013-05-17 01:32:00,
2013-05-16 21:44:00,87.0,-99.9,29.96,SW,230,4.0,8.0,-999,0.00,,,0.00,,2013-05-17 01:44:00,
2013-05-16 21:53:00,87.0,-99.9,29.96,SW,230,4.0,8.0,-999,0.00,,,0.00,,2013-05-17 01:53:00,
2013-05-16 22:02:00,85.0,-99.9,29.97,SW,233,0.0,0.0,-999,0.00,,,0.00,,2013-05-17 02:02:00,
2013-05-16 22:12:00,85.0,-99.9,29.97,SW,233,0.0,0.0,-999,0.00,,,0.00,,2013-05-17 02:12:00,
2013-05-16 22:22:00,84.0,-99.9,29.98,SW,233,0.0,0.0,-999,0.00,,,0.00,,2013-05-17 02:22:00,
2013-05-16 22:33:00,83.0,-99.9,29.98,WSW,243,0.0,0.0,-999,0.00,,,0.00,,2013-05-17 02:33:00,
2013-05-16 22:42:00,83.0,-99.9,29.98,WSW,243,0.0,0.0,-999,0.00,,,0.00,,2013-05-17 02:42:00,
2013-05-16 22:53:00,81.0,-99.9,29.98,WSW,243,0.0,0.0,-999,0.00,,,0.00,,2013-05-17 02:53:00,
2013-05-16 23:02:00,80.0,-99.9,29.99,WSW,243,0.0,0.0,-999,0.00,,,0.00,,2013-05-17 03:02:00,
2013-05-16 23:11:00,80.0,-99.9,29.99,WSW,243,0.0,0.0,-999,0.00,,,0.00,,2013-05-17 03:11:00,
2013-05-16 23:23:00,80.0,-99.9,29.99,WSW,243,0.0,0.0,-999,0.00,,,0.00,,2013-05-17 03:23:00,
2013-05-16 23:34:00,80.0,-99.9,30.00,SW,219,0.0,0.0,-999,0.00,,,0.00,,2013-05-17 03:34:00,
2013-05-16 23:43:00,80.0,-99.9,30.00,SW,219,0.0,0.0,-999,0.00,,,0.00,,2013-05-17 03:43:00,
2013-05-16 23:53:00,79.0,-99.9,30.01,SW,219,0.0,0.0,-999,0.00,,,0.00,,2013-05-17 03:53:00,